[[{"header":{"parameterUnit":"m.s-1","parameterCategory":1,"la1":30.2991,"la2":30.254,"lo1":-89.0895,"lo2":-89.0444,"dy":0.0017,"dx":0.0017,"nx":28,"ny":28,"refTime":"2023-10-03T03:00:00:Z","depth":0,"parameterNumber":2,"parameterNumberName":"U-component_of_WINDS"},"data":[0,0,0,0,0,0,0,0,0,0,0,0,0,0,0,0,0,0,0,0,0,0,0,0,0,0,0,0,0,0,0,0,0,0,0,0,0,0,0,0,0,0,0,0,0,0,0,0,0,0,0,0,0,0,0,0,0,0,-3.1797,-3.1797,0,-3.1883,-3.1884,-3.1885,-3.1755,-3.1751,-3.1746,-3.1742,-3.1837,-3.1844,-3.1851,0,0,0,0,0,0,0,0,0,0,0,0,0,-3.1524,-3.153,-3.1796,-3.1798,-3.1799,-3.1883,-3.1884,-3.1886,-3.1756,-3.175,-3.1745,-3.174,-3.1835,-3.1843,-3.1851,0,0,0,0,0,0,0,0,0,0,0,0,0,-3.163,-3.1531,-3.1796,-3.1744,-3.174,-3.1883,-3.1884,-3.1886,-3.1757,-3.175,-3.1743,-3.1737,-3.1832,-3.1842,-3.1852,-3.2053,0,0,-3.1884,-3.1888,0,0,0,0,0,0,0,0,-3.1624,-3.164,-3.1751,-3.1748,-3.1744,-3.1801,-3.1823,-3.1942,-3.1759,-3.1751,-3.1742,-3.1734,-3.1831,-3.1841,-3.1873,-3.2057,-3.2061,-3.1885,-3.1891,-3.1895,-3.1898,0,0,0,0,0,0,0,-3.1617,-3.1636,-3.1831,-3.1752,-3.1748,-3.1718,-3.1725,-3.1845,-3.1829,-3.1751,-3.1742,-3.1753,-3.1828,-3.1863,-3.1874,-3.2063,-3.1884,-3.1893,-3.19,-3.1904,-3.2417,-3.2424,0,0,0,0,0,0,-3.1615,-3.163,-3.1828,-3.1834,-3.1666,-3.1728,-3.1737,-3.179,-3.1827,-3.1826,-3.1759,-3.1747,-3.1849,-3.1862,-3.1877,-3.2115,-3.1895,-3.1905,-3.1911,-3.2409,-3.2419,-3.2427,0,0,0,0,0,0,-3.161,-3.1634,-3.1825,-3.173,-3.1751,-3.174,-3.1801,-3.1795,-3.183,-3.1833,-3.183,-3.1798,-3.1844,-3.1863,-3.201,-3.2116,-3.1909,-3.1919,-3.2401,-3.2412,-3.2423,-3.2592,0,0,0,0,0,0,-3.1602,-3.1633,-3.1708,-3.1732,-3.1757,-3.1955,-3.1808,-3.1802,-3.1847,-3.1832,-3.1868,-3.1868,-3.184,-3.1995,-3.202,-3.2127,-3.1927,-3.2391,-3.2406,-3.2419,-3.2577,-3.2608,-3.2634,0,0,0,0,0,-3.1593,-3.1753,-3.1712,-3.1737,-3.185,-3.1961,-3.1976,-3.1939,-3.1856,-3.1932,-3.1934,-3.1867,-3.21,-3.2011,-3.2038,-3.215,-3.2384,-3.2402,-3.2418,-3.2564,-3.2602,-3.2633,0,0,0,0,0,0,-3.1744,-3.1755,-3.171,-3.1882,-3.1921,-3.1939,-3.2034,-3.198,-3.2045,-3.2028,-3.1981,-3.1991,-3.2149,-3.2163,-3.2064,-3.2346,-3.2229,-3.2252,-3.2331,-3.2366,-3.2394,-3.2389,-3.1935,0,0,0,0,0,-3.1796,-3.1884,-3.189,-3.2042,-3.2063,-3.2046,-3.2093,-3.206,-3.21,-3.2117,-3.2129,-3.2173,-3.2255,-3.2311,-3.2388,-3.2577,-3.2585,-3.2667,-3.2696,-3.2719,-3.2741,-3.2844,-3.2881,-3.2482,-3.2482,-3.2482,0,0,-3.1908,-3.1925,-3.1983,-3.2072,-3.2099,-3.2193,-3.2061,-3.2165,-3.2235,-3.2133,-3.2273,-3.2284,-3.2329,-3.2499,-3.2574,-3.2516,-3.2852,-3.2741,-3.276,-3.2768,-3.2865,-3.2903,-3.2936,-3.2494,-3.2492,-3.249,0,0,-3.2158,-3.2179,-3.2307,-3.2336,-3.2377,-3.2364,-3.2395,-3.2421,-3.2424,-3.2562,-3.2489,-3.2572,-3.2715,-3.275,-3.2787,-3.305,-3.2992,-3.3077,-3.3227,-3.3328,-3.3359,-3.3387,-3.3483,-3.3517,-3.3097,-3.3098,-3.3098,0,-3.2291,-3.2427,-3.2381,-3.2491,-3.2533,-3.2443,-3.2574,-3.2605,-3.2671,-3.2703,-3.2635,-3.2814,-3.2837,-3.3015,-3.3079,-3.3111,-3.3147,-3.3073,-3.3358,-3.3385,-3.3411,-3.3501,-3.3537,-3.3108,-3.3107,-3.3106,-3.3105,0,-3.259,-3.2686,-3.2785,-3.2848,-3.2901,-3.3022,-3.2995,-3.3055,-3.3018,-3.3013,-3.3156,-3.3181,-3.3261,-3.3301,-3.3267,-3.3474,-3.3437,-3.3365,-3.3247,-3.346,-3.3544,-3.3579,-3.3123,-3.3119,-3.3116,-3.3113,0,0,-3.294,-3.2974,-3.3012,-3.304,-3.3078,-3.3152,-3.3269,-3.3345,-3.3398,-3.3446,-3.3544,-3.3667,-3.36,-3.3642,-3.3611,-3.37,-3.3909,-3.3617,-3.3617,-3.3672,-3.4141,-3.4197,-3.4237,-3.3869,-3.3875,-3.388,-3.4138,0,-3.3191,-3.339,-3.3351,-3.3547,-3.3636,-3.3551,-3.3652,-3.3688,-3.3686,-3.3763,-3.3761,-3.385,-3.3754,-3.3779,-3.3862,-3.3866,-3.4003,-3.3846,-3.3963,-3.3967,-3.3956,-3.4281,-3.434,-3.4582,-3.4171,-3.4176,-3.418,0,-3.351,-3.3568,-3.3772,-3.3796,-3.3832,-3.3924,-3.3991,-3.4064,-3.4104,-3.4096,-3.4143,-3.4095,-3.4213,-3.4092,-3.4255,-3.415,-3.4195,-3.4203,-3.4212,-3.4223,-3.4088,-3.4304,-3.4658,-3.4696,-3.4231,-3.4227,-3.4224,0,-3.3747,-3.3876,-3.4014,-3.4041,-3.4072,-3.4139,-3.4156,-3.4187,-3.4236,-3.4295,-3.4327,-3.44,-3.4441,-3.4499,-3.4473,-3.4387,-3.4643,-3.4519,-3.4642,-3.4643,-3.4702,-3.4699,-3.5071,-3.4728,-3.4727,-3.4726,-3.4726,0,-3.4033,-3.4161,-3.4121,-3.4207,-3.4349,-3.4304,-3.4447,-3.4453,-3.4483,-3.457,-3.4501,-3.4585,-3.4544,-3.4626,-3.4606,-3.4746,-3.4764,-3.4763,-3.4757,-3.4771,-3.4771,-3.4801,-3.4785,-3.4736,-3.4734,-3.4732,-3.473,0,-3.4322,-3.43,-3.4446,-3.4463,-3.447,-3.4575,-3.459,-3.4671,-3.4663,-3.4774,-3.4798,-3.4787,-3.4879,-3.4858,-3.496,-3.4946,-3.5123,-3.5094,-3.5109,-3.5103,-3.5228,-3.5218,-3.5635,-3.5688,-3.5309,-3.5312,-3.5315,0,-3.4507,-3.4604,-3.463,-3.4682,-3.4704,-3.4789,-3.4837,-3.4797,-3.485,-3.4902,-3.4978,-3.5063,-3.513,-3.5282,-3.5284,-3.5362,-3.5336,-3.5477,-3.5348,-3.5359,-3.5341,-3.5337,-3.5347,-3.5504,-3.5508,-3.5512,-3.5515,0,-3.4838,-3.4822,-3.4893,-3.4961,-3.502,-3.5073,-3.5119,-3.5166,-3.5129,-3.5193,-3.5285,-3.5337,-3.5439,-3.5527,-3.5598,-3.5617,-3.5562,-3.5555,-3.5588,-3.5604,-3.5609,-3.561,-3.5181,-3.5546,-3.5543,-3.5541,-3.5539,-3.5538,-3.5082,-3.5164,-3.5195,-3.5278,-3.5307,-3.5352,-3.5429,-3.5429,-3.5505,-3.5584,-3.5555,-3.5662,-3.5699,-3.5789,-3.5817,-3.5901,-3.5849,-3.5896,-3.5909,-3.5922,-3.5938,-3.5594,-3.5914,-3.5913,-3.5912,-3.5911,-3.5911,0,-3.541,-3.5426,-3.5502,-3.5567,-3.5632,-3.557,-3.5618,-3.5677,-3.5771,-3.5809,-3.5875,-3.5982,-3.6066,-3.6074,-3.6154,-3.6219,-3.6196,-3.6242,-3.6238,-3.6244,-3.5979,-3.5944,-3.626,-3.626,-3.626,-3.626,-3.6259,-3.6259,-3.5589,-3.5725,-3.5713,-3.5864,-3.5879,-3.5981,-3.6013,-3.6055,-3.6085,-3.6207,-3.6275,-3.6279,-3.6306,-3.6387,-3.6462,-3.6462,-3.6496,-3.6552,-3.6544,-3.6297,-3.6262,-3.6229,-3.6195,-3.6559,-3.656,-3.6801,-3.6803,-3.6805]},{"header":{"parameterUnit":"m.s-1","parameterCategory":1,"la1":30.2991,"la2":30.254,"lo1":-89.0895,"lo2":-89.0444,"dy":0.0017,"dx":0.0017,"nx":28,"ny":28,"refTime":"2023-10-03T03:00:00:Z","depth":0,"parameterNumber":3,"parameterNumberName":"V-component_of_WINDS"},"data":[0,0,0,0,0,0,0,0,0,0,0,0,0,0,0,0,0,0,0,0,0,0,0,0,0,0,0,0,0,0,0,0,0,0,0,0,0,0,0,0,0,0,0,0,0,0,0,0,0,0,0,0,0,0,0,0,0,0,-1.52,-1.52,0,-1.5171,-1.5171,-1.517,-1.5171,-1.5171,-1.5171,-1.5172,-1.5139,-1.5138,-1.5137,0,0,0,0,0,0,0,0,0,0,0,0,0,-1.5251,-1.525,-1.52,-1.52,-1.5199,-1.5171,-1.5171,-1.517,-1.5171,-1.5171,-1.5172,-1.5172,-1.514,-1.5138,-1.5137,0,0,0,0,0,0,0,0,0,0,0,0,0,-1.5226,-1.525,-1.52,-1.5196,-1.5196,-1.5171,-1.5171,-1.517,-1.5171,-1.5171,-1.5172,-1.5172,-1.514,-1.5139,-1.5137,-1.5114,0,0,-1.5131,-1.513,0,0,0,0,0,0,0,0,-1.5228,-1.5224,-1.5197,-1.5196,-1.5196,-1.5175,-1.5177,-1.5151,-1.517,-1.518,-1.5172,-1.5173,-1.5151,-1.5148,-1.5141,-1.5112,-1.5111,-1.5131,-1.513,-1.5129,-1.5128,0,0,0,0,0,0,0,-1.5229,-1.5226,-1.5189,-1.5197,-1.5196,-1.5194,-1.5191,-1.5172,-1.5162,-1.5179,-1.5179,-1.5176,-1.515,-1.5143,-1.514,-1.511,-1.5131,-1.5129,-1.5128,-1.5127,-1.5056,-1.5055,0,0,0,0,0,0,-1.5232,-1.5227,-1.5189,-1.5188,-1.5214,-1.5193,-1.519,-1.5181,-1.5163,-1.516,-1.5175,-1.5176,-1.5146,-1.5143,-1.5139,-1.5108,-1.5129,-1.5127,-1.5126,-1.5057,-1.5056,-1.5055,0,0,0,0,0,0,-1.5234,-1.5229,-1.5191,-1.5207,-1.5202,-1.5191,-1.5182,-1.518,-1.5173,-1.516,-1.5158,-1.517,-1.5146,-1.5142,-1.5119,-1.5107,-1.5126,-1.5125,-1.5058,-1.5057,-1.5055,-1.5047,0,0,0,0,0,0,-1.5235,-1.523,-1.5222,-1.5207,-1.5201,-1.5172,-1.5181,-1.5179,-1.517,-1.517,-1.5154,-1.5152,-1.5146,-1.5122,-1.5117,-1.5105,-1.5123,-1.5059,-1.5057,-1.5056,-1.5048,-1.5046,-1.5044,0,0,0,0,0,-1.5237,-1.5221,-1.5222,-1.5217,-1.5192,-1.5172,-1.5168,-1.5163,-1.5169,-1.516,-1.5151,-1.5152,-1.5109,-1.512,-1.5114,-1.5101,-1.506,-1.5058,-1.5056,-1.505,-1.5046,-1.5044,0,0,0,0,0,0,-1.5234,-1.5219,-1.522,-1.5199,-1.5187,-1.5172,-1.5161,-1.5161,-1.5146,-1.5147,-1.514,-1.5136,-1.5113,-1.5105,-1.5117,-1.5076,-1.5085,-1.5082,-1.5082,-1.5079,-1.5076,-1.5078,-1.5122,0,0,0,0,0,-1.5232,-1.5218,-1.5205,-1.5188,-1.5181,-1.5172,-1.5163,-1.516,-1.5147,-1.5142,-1.5131,-1.5117,-1.51,-1.5089,-1.5073,-1.5048,-1.5042,-1.5036,-1.5033,-1.5031,-1.5028,-1.501,-1.5006,-1.5049,-1.5049,-1.5049,0,0,-1.5225,-1.5215,-1.5207,-1.5187,-1.5177,-1.5161,-1.5168,-1.5152,-1.5139,-1.5139,-1.5116,-1.5108,-1.5092,-1.5066,-1.5055,-1.5059,-1.5015,-1.5029,-1.5028,-1.5026,-1.5008,-1.5004,-1.5,-1.5048,-1.5048,-1.5048,0,0,-1.5205,-1.5198,-1.5181,-1.5171,-1.5156,-1.5149,-1.5145,-1.513,-1.5124,-1.5101,-1.51,-1.5084,-1.5056,-1.5043,-1.5033,-1.5005,-1.5004,-1.5,-1.4987,-1.497,-1.4966,-1.4963,-1.495,-1.4946,-1.4998,-1.4998,-1.4998,0,-1.5199,-1.5177,-1.5172,-1.5155,-1.5145,-1.5144,-1.5125,-1.5115,-1.5095,-1.5087,-1.5093,-1.5055,-1.5044,-1.5014,-1.5007,-1.5,-1.4993,-1.5002,-1.4967,-1.4964,-1.4961,-1.4949,-1.4944,-1.4997,-1.4997,-1.4997,-1.4997,0,-1.5168,-1.5152,-1.514,-1.5121,-1.5109,-1.5092,-1.5082,-1.5071,-1.5068,-1.506,-1.5035,-1.5022,-1.5001,-1.4994,-1.4992,-1.4963,-1.4965,-1.4969,-1.4978,-1.4957,-1.4944,-1.494,-1.4996,-1.4997,-1.4997,-1.4997,0,0,-1.5147,-1.5124,-1.5119,-1.5109,-1.5091,-1.5078,-1.5058,-1.5039,-1.5027,-1.5013,-1.4995,-1.497,-1.4972,-1.496,-1.4956,-1.4941,-1.4915,-1.4946,-1.4945,-1.4938,-1.4878,-1.4874,-1.4869,-1.4915,-1.4914,-1.4914,-1.4879,0,-1.5124,-1.5091,-1.5085,-1.5055,-1.5038,-1.5036,-1.5018,-1.5004,-1.4996,-1.4979,-1.4969,-1.495,-1.4956,-1.4948,-1.4934,-1.4922,-1.4903,-1.4925,-1.4895,-1.4894,-1.4897,-1.4863,-1.4859,-1.4827,-1.4874,-1.4874,-1.4873,0,-1.5092,-1.5077,-1.5045,-1.5026,-1.5019,-1.5004,-1.4983,-1.4968,-1.495,-1.4945,-1.4931,-1.4927,-1.4904,-1.4915,-1.4881,-1.4896,-1.4883,-1.4875,-1.4874,-1.4869,-1.4881,-1.4855,-1.4817,-1.4811,-1.4866,-1.4867,-1.4867,0,-1.5077,-1.5048,-1.5024,-1.5016,-1.4994,-1.4983,-1.4973,-1.4956,-1.4944,-1.4925,-1.4916,-1.4895,-1.4883,-1.4866,-1.4856,-1.4865,-1.4821,-1.4832,-1.4814,-1.4814,-1.4804,-1.4804,-1.4761,-1.4799,-1.48,-1.48,-1.48,0,-1.505,-1.5031,-1.5017,-1.5002,-1.4979,-1.4971,-1.4947,-1.4937,-1.4922,-1.4903,-1.49,-1.4882,-1.4871,-1.485,-1.4842,-1.4813,-1.4809,-1.4801,-1.4799,-1.48,-1.4801,-1.4791,-1.4792,-1.4798,-1.4799,-1.4799,-1.4799,0,-1.5029,-1.502,-1.4993,-1.4974,-1.4969,-1.4952,-1.4934,-1.4918,-1.4909,-1.4885,-1.4879,-1.4864,-1.4839,-1.4828,-1.4798,-1.4792,-1.4758,-1.4758,-1.4764,-1.4763,-1.4744,-1.4744,-1.469,-1.4681,-1.4728,-1.4728,-1.4728,0,-1.5012,-1.4997,-1.4975,-1.4963,-1.4953,-1.4933,-1.4919,-1.491,-1.4896,-1.4873,-1.4859,-1.4834,-1.4814,-1.4774,-1.4759,-1.4735,-1.4733,-1.4716,-1.4729,-1.473,-1.4729,-1.4729,-1.4726,-1.4713,-1.4712,-1.4712,-1.4712,0,-1.4982,-1.4977,-1.4959,-1.4937,-1.4921,-1.4904,-1.4887,-1.4876,-1.4864,-1.4847,-1.4822,-1.4807,-1.4775,-1.4749,-1.4723,-1.471,-1.4707,-1.4707,-1.4701,-1.4702,-1.4704,-1.4699,-1.4754,-1.4709,-1.4709,-1.4709,-1.4709,-1.4709,-1.4961,-1.4945,-1.4927,-1.4905,-1.4891,-1.4874,-1.4857,-1.4845,-1.4825,-1.4798,-1.4793,-1.4766,-1.4744,-1.4709,-1.4696,-1.4672,-1.4676,-1.4668,-1.4665,-1.4663,-1.466,-1.471,-1.4668,-1.4668,-1.4668,-1.4668,-1.4668,0,-1.4928,-1.4916,-1.4896,-1.4871,-1.4853,-1.4853,-1.4833,-1.4817,-1.4793,-1.4774,-1.4754,-1.4722,-1.4697,-1.4678,-1.4651,-1.4635,-1.4633,-1.4628,-1.4628,-1.4624,-1.466,-1.4667,-1.463,-1.463,-1.463,-1.4631,-1.4631,-1.4631,-1.4909,-1.4882,-1.4874,-1.4839,-1.4826,-1.4799,-1.4787,-1.477,-1.4754,-1.472,-1.4699,-1.4687,-1.4667,-1.4638,-1.4613,-1.4608,-1.4596,-1.4591,-1.4586,-1.4619,-1.4623,-1.4626,-1.4632,-1.459,-1.459,-1.4552,-1.4551,-1.4551]}]]